Home   Weather   Saskatoon   Past weeks

Flag for Canada Past Weather in Saskatoon, Saskatchewan, Canada — Yesterday and Last 2 Weeks

Now
16 °F

Light snow. Partly cloudy.


Feels Like: 6 °F
Forecast: 3 / 15 °F
Wind: 7 mph from West

Location: Saskatoon Weather Station

Current Time: Feb 26, 2017 at 1:53:14 am

Latest Report: Feb 26, 2017 at 1:00 am


Visibility: 15 mi

Pressure: 29.77 "Hg

Humidity: 86%

Dew Point: 12 °F

Location of SaskatoonLocation

Past Weather in Saskatoon — Graph

°F

Saskatoon Temperature Yesterday

Maximum temperature yesterday: 18 °F (at 4:00 pm)
Minimum temperature yesterday: 3 °F (at 5:00 am)
Average temperature yesterday: 11 °F

High & Low Weather Summary for the Past Weeks

 TemperatureHumidityPressure
High45 °F (Feb 16, 2:00 pm)100% (Feb 18, 8:00 am)30.24 "Hg (Feb 18, 8:00 am)
Low3 °F (Feb 25, 5:00 am)57% (Feb 15, 3:00 pm)29.12 "Hg (Feb 17, 12:00 am)
Average27 °F80%29.86 "Hg
* Reported Feb 11 12:00 am — Feb 26 12:00 am, Saskatoon, Weather by CustomWeather, © 2017

Note: Actual official high and low records may vary slightly from our data, if they occured in-between our weather recording intervals... More about our weather records

Advertising

Saskatoon Weather History for the Previous 24 Hours

Scroll right to see more
 ConditionsComfort  
Time TempWeatherWind HumidityBarometerVisibility
12:00 am
Sun, Feb 26
16 °FLight snow. Mostly cloudy.5 mph93%29.78 "Hg12 mi
11:00 pm
Sat, Feb 25
16 °FLight snow. Mostly cloudy.5 mph93%29.78 "Hg12 mi
10:40 pm16 °FLight snow. Mostly cloudy.3 mph86%29.78 "Hg12 mi
10:00 pm16 °FLight snow. Passing clouds.6 mph86%29.77 "Hg15 mi
9:00 pm16 °FLight snow. Overcast.9 mph86%29.78 "Hg10 mi
8:45 pm16 °FLight snow. Overcast.8 mph79%29.78 "Hg12 mi
8:00 pm14 °FPassing clouds.6 mph79%29.79 "Hg15 mi
7:00 pm16 °FPassing clouds.2 mph67%29.80 "Hg15 mi
6:00 pm16 °FScattered clouds.6 mph67%29.82 "Hg15 mi
5:00 pm16 °FScattered clouds.6 mph67%29.83 "Hg15 mi
4:00 pm18 °FPassing clouds.8 mph58%29.86 "Hg15 mi
3:00 pm16 °FScattered clouds.7 mph57%29.89 "Hg15 mi
2:00 pm14 °FPartly sunny.9 mph62%29.91 "Hg15 mi
1:00 pm12 °FPartly sunny.8 mph67%29.95 "Hg15 mi
12:00 pm10 °FPartly sunny.7 mph67%29.98 "Hg15 mi
11:00 am9 °FOvercast.7 mph72%30.01 "Hg15 mi
10:00 am9 °FOvercast.8 mph72%30.03 "Hg15 mi
9:00 am7 °FOvercast.6 mph78%30.06 "Hg15 mi
8:00 am7 °FOvercast.2 mph78%30.08 "Hg15 mi
7:00 am7 °FOvercast.5 mph78%30.11 "Hg15 mi
6:00 am3 °FOvercast.6 mph85%30.12 "Hg15 mi
5:00 am3 °FPassing clouds.5 mph85%30.14 "Hg15 mi
4:00 am7 °FPassing clouds.6 mph78%30.16 "Hg15 mi
3:00 am10 °FOvercast.8 mph67%30.17 "Hg15 mi
2:00 am7 °FPassing clouds.6 mph78%30.20 "Hg15 mi
1:00 am9 °FPassing clouds.8 mph78%30.21 "Hg15 mi
Weather by CustomWeather, © 2017

See weather overviewHow to use our weather pages